Regional Weather Roundup
Issued by NWS

Home | Current Version | Previous Version | Graphics & Text | Print | Product List | Glossary On
Versions: 1 2 3 4 5 6 7 8 9 10 11 12 13 14 15 16 17 18 19 20 21 22 23 24 25 26 27 28 29 30 31 32 33 34 35 36 37 38 39 40 41 42 43 44 45 46 47 48 49 50
000
ASUS43 KOAX 280502
RWRNE

WEATHER ROUNDUP FOR NEBRASKA
NATIONAL WEATHER SERVICE OMAHA NE
1200 AM CDT FRI AUG 28 2015

NOTES: SATELLITE DATA IS BEING USED TO AUGMENT CLOUD COVER ABOVE
       12000 FEET.
       "FAIR" INDICATES FEW OR NO CLOUDS BELOW 12,000 FEET WITH NO
       SIGNIFICANT WEATHER AND/OR OBSTRUCTIONS TO VISIBILITY.

  * THESE STATIONS DO NOT REPORT WEATHER SUCH AS RAIN...SNOW OR FOG.

NEZ001>004-019>022-054>056-280600-
NEBRASKA PANHANDLE

CITY           SKY/WX    TMP DP  RH WIND       PRES   REMARKS
SCOTTSBLUFF    PTCLDY    65  57  75 CALM      30.08R
ALLIANCE       PTCLDY    54  52  93 W6        30.05F
CHADRON        CLEAR     57  54  89 SW6       30.02F
KIMBALL        CLEAR     58  53  83 CALM      30.12F
SIDNEY         PTCLDY    61  55  81 NW9       30.10R
$$

NEZ057>060-069>072-079>082-280600-
SOUTHWEST NEBRASKA

CITY           SKY/WX    TMP DP  RH WIND       PRES   REMARKS
NORTH PLATTE   PTCLDY    70  65  84 NW9       29.93S
IMPERIAL       CLEAR     68  60  75 NW13      29.99S
MCCOOK         PTCLDY    74  65  73 N9        29.91R
$$

NEZ005>010-023>029-035>040-094-280600-
NORTH CENTRAL NEBRASKA

CITY           SKY/WX    TMP DP  RH WIND       PRES   REMARKS
AINSWORTH      CLOUDY    70  69  98 N8        29.92F FOG
BROKEN BOW     PTCLDY    69  66  90 N6        29.87F
O`NEILL        CLOUDY    70  68  94 E9        29.89F
ORD            CLOUDY    70  66  87 E3        29.85S
$$

NEZ041-046>049-061>064-073>077-083>087-280600-
SOUTH CENTRAL NEBRASKA

CITY           SKY/WX    TMP DP  RH WIND       PRES   REMARKS
GRAND ISLAND   CLOUDY    75  66  73 SW15      29.84S
AURORA         CLOUDY    74  67  78 SW12G20   29.83S
HASTINGS       MOCLDY    76  65  68 S14G26    29.85R
HOLDREGE       CLEAR     73  64  71 S12G17    29.86S
KEARNEY *      PTCLDY    72  63  73 S9        29.86R
YORK           LGT RAIN  72  68  88 CALM      29.84S
$$

NEZ011>018-030>034-042>045-280600-
NORTHEAST NEBRASKA

CITY           SKY/WX    TMP DP  RH WIND       PRES   REMARKS
NORFOLK        RAIN      68  65  90 SE18G29   29.88R
ALBION         CLOUDY    68  66  91 SE8       29.85S
BLAIR          HVY RAIN  68  65  89 CALM      29.96R
COLUMBUS *     CLOUDY   N/A N/A N/A SE7       29.88S
FREMONT        RAIN      71  66  83 SE9       29.93F
TEKAMAH        LGT RAIN  69  67  93 SE8       29.95R
$$

NEZ050>053-065>068-078-088>093-280600-
SOUTHEAST NEBRASKA

CITY           SKY/WX    TMP DP  RH WIND       PRES   REMARKS
LINCOLN        LGT RAIN  71  66  84 E12       29.85R
OMAHA EPPLEY   LGT RAIN  70  65  84 SE7       29.94R
BEATRICE       CLOUDY    70  64  82 SE18G30   29.86F
FALLS CITY     CLOUDY    70  66  87 SE13      29.92F
NEBRASKA CITY  CLOUDY    69  67  94 S15G22    29.91F
PLATTSMOUTH    CLOUDY    69  66  90 E3        29.94R
$$

NEZ044-045-051>053-067-280600-
OMAHA AREA

CITY           SKY/WX    TMP DP  RH WIND       PRES   REMARKS
OMAHA EPPLEY   LGT RAIN  70  65  84 SE7       29.94R
BLAIR          HVY RAIN  68  65  89 CALM      29.96R
FREMONT        RAIN      71  66  83 SE9       29.93F
OFFUTT AFB     RAIN      69  66  90 E6        29.92R
PLATTSMOUTH    CLOUDY    69  66  90 E3        29.94R
WAHOO          HVY RAIN  69  66  89 NE8       29.93R
$$



USA.gov is the U.S. government's official web portal to all federal, state and local government web resources and services.